• en Suisse
  • Liste des pays
  • À 7 jours
  • Température de l'eau
  • Carte satellitaire
  • Carte météo
  • Widgets météo
  • user-avatar
    Se connecter

    Météo par heure à Eisenstadt

    Ce jour, 26 Mai, Samedi

    Heure Température Précipitation Vent Pression Humidité
    00:00 +14°C° 0 mm 1 m/s 725 mmHg 92%
    01:00 +13°C° 0 mm 1 m/s 725 mmHg 92%
    02:00 +13°C° 0 mm 1 m/s 725 mmHg 92%
    03:00 +13°C° 0 mm 1 m/s 725 mmHg 92%
    04:00 +13°C° 0 mm 1 m/s 725 mmHg 91%
    05:00 +14°C° 0 mm 1 m/s 726 mmHg 87%
    06:00 +15°C° 0 mm 0 m/s 726 mmHg 83%
    07:00 +16°C° 0 mm 0 m/s 726 mmHg 79%
    08:00 +20°C° 0 mm 1 m/s 727 mmHg 73%
    09:00 +22°C° 0 mm 1 m/s 727 mmHg 67%
    10:00 +23°C° 0 mm 1 m/s 727 mmHg 61%
    11:00 +24°C° 0,1 mm 1 m/s 727 mmHg 59%
    12:00 +24°C° 0,1 mm 1 m/s 727 mmHg 57%
    13:00 +25°C° 0,1 mm 1 m/s 727 mmHg 55%
    14:00 +25°C° 0,1 mm 1 m/s 726 mmHg 55%
    15:00 +25°C° 0,1 mm 1 m/s 726 mmHg 55%
    16:00 +25°C° 0,1 mm 1 m/s 726 mmHg 56%
    17:00 +24°C° 0 mm 1 m/s 726 mmHg 62%
    18:00 +22°C° 0 mm 1 m/s 726 mmHg 68%
    19:00 +21°C° 0 mm 1 m/s 726 mmHg 74%
    20:00 +20°C° 0 mm 1 m/s 726 mmHg 77%
    21:00 +19°C° 0 mm 1 m/s 726 mmHg 80%
    22:00 +16°C° 0 mm 1 m/s 726 mmHg 83%
    23:00 +16°C° 0 mm 1 m/s 726 mmHg 84%

    Demain, 27 Mai, Dimanche

    Heure Température Précipitation Vent Pression Humidité
    00:00 +16°C° 0 mm 1 m/s 726 mmHg 85%
    01:00 +15°C° 0 mm 1 m/s 726 mmHg 87%
    02:00 +15°C° 0 mm 1 m/s 726 mmHg 88%
    03:00 +15°C° 0 mm 1 m/s 726 mmHg 89%
    04:00 +13°C° 0 mm 0 m/s 725 mmHg 90%
    05:00 +15°C° 0 mm 0 m/s 726 mmHg 85%
    06:00 +17°C° 0 mm 0 m/s 726 mmHg 80%
    07:00 +19°C° 0 mm 0 m/s 726 mmHg 75%
    08:00 +22°C° 0 mm 1 m/s 726 mmHg 69%
    09:00 +24°C° 0 mm 1 m/s 726 mmHg 64%
    10:00 +25°C° 0 mm 1 m/s 726 mmHg 59%
    11:00 +26°C° 0 mm 2 m/s 726 mmHg 56%
    12:00 +27°C° 0 mm 2 m/s 726 mmHg 53%
    13:00 +27°C° 0 mm 2 m/s 726 mmHg 51%
    14:00 +27°C° 0 mm 2 m/s 725 mmHg 51%
    15:00 +27°C° 0 mm 2 m/s 725 mmHg 52%
    16:00 +27°C° 0 mm 2 m/s 725 mmHg 52%
    17:00 +26°C° 0 mm 2 m/s 725 mmHg 59%
    18:00 +24°C° 0 mm 1 m/s 725 mmHg 66%
    19:00 +23°C° 0 mm 1 m/s 724 mmHg 73%
    20:00 +22°C° 0 mm 1 m/s 725 mmHg 76%
    21:00 +20°C° 0 mm 1 m/s 725 mmHg 79%
    22:00 +19°C° 0 mm 1 m/s 725 mmHg 82%
    23:00 +19°C° 0 mm 1 m/s 725 mmHg 84%

    Après-demain, 28 Mai, Lundi

    Heure Température Précipitation Vent Pression Humidité
    00:00 +19°C° 0 mm 1 m/s 725 mmHg 86%
    01:00 +18°C° 0 mm 1 m/s 725 mmHg 88%
    02:00 +18°C° 0 mm 1 m/s 724 mmHg 89%
    03:00 +18°C° 0 mm 1 m/s 724 mmHg 90%
    04:00 +16°C° 0 mm 1 m/s 724 mmHg 91%
    05:00 +19°C° 0 mm 1 m/s 725 mmHg 87%
    06:00 +21°C° 0 mm 1 m/s 725 mmHg 82%
    07:00 +22°C° 0 mm 1 m/s 725 mmHg 78%
    08:00 +24°C° 0 mm 2 m/s 725 mmHg 72%
    09:00 +25°C° 0 mm 2 m/s 725 mmHg 66%
    10:00 +26°C° 0 mm 3 m/s 725 mmHg 60%
    11:00 +27°C° 0,1 mm 3 m/s 725 mmHg 58%
    12:00 +28°C° 0,1 mm 3 m/s 725 mmHg 55%
    13:00 +28°C° 0,1 mm 3 m/s 725 mmHg 53%
    14:00 +28°C° 0,1 mm 3 m/s 724 mmHg 55%
    15:00 +28°C° 0,1 mm 3 m/s 724 mmHg 56%
    16:00 +28°C° 0,1 mm 3 m/s 724 mmHg 58%
    17:00 +26°C° 0,2 mm 3 m/s 724 mmHg 65%
    18:00 +25°C° 0,2 mm 2 m/s 724 mmHg 72%
    19:00 +23°C° 0,2 mm 2 m/s 723 mmHg 79%
    20:00 +21°C° 0 mm 2 m/s 724 mmHg 81%
    21:00 +20°C° 0 mm 2 m/s 724 mmHg 83%
    22:00 +20°C° 0 mm 1 m/s 724 mmHg 86%
    23:00 +20°C° 0 mm 1 m/s 724 mmHg 87%

    29 Mai, Mardi

    Heure Température Précipitation Vent Pression Humidité
    00:00 +19°C° 0 mm 1 m/s 724 mmHg 88%
    01:00 +19°C° 0 mm 1 m/s 724 mmHg 89%
    02:00 +19°C° 0 mm 1 m/s 723 mmHg 90%
    03:00 +17°C° 0 mm 2 m/s 723 mmHg 91%
    04:00 +17°C° 0 mm 2 m/s 723 mmHg 92%
    05:00 +18°C° 0 mm 2 m/s 723 mmHg 88%
    06:00 +19°C° 0 mm 2 m/s 723 mmHg 84%
    07:00 +21°C° 0 mm 2 m/s 723 mmHg 80%
    08:00 +22°C° 0 mm 3 m/s 723 mmHg 74%
    09:00 +25°C° 0 mm 4 m/s 724 mmHg 67%
    10:00 +26°C° 0 mm 4 m/s 724 mmHg 60%
    11:00 +26°C° 0 mm 4 m/s 723 mmHg 58%
    12:00 +27°C° 0 mm 4 m/s 723 mmHg 55%
    13:00 +28°C° 0 mm 4 m/s 723 mmHg 52%
    14:00 +27°C° 0 mm 4 m/s 723 mmHg 53%
    15:00 +27°C° 0 mm 4 m/s 722 mmHg 54%
    16:00 +27°C° 0 mm 4 m/s 722 mmHg 55%
    17:00 +26°C° 0 mm 4 m/s 722 mmHg 61%
    18:00 +24°C° 0 mm 3 m/s 722 mmHg 68%
    19:00 +22°C° 0 mm 3 m/s 721 mmHg 75%
    20:00 +21°C° 0,2 mm 3 m/s 722 mmHg 78%
    21:00 +19°C° 0,2 mm 3 m/s 722 mmHg 81%
    22:00 +18°C° 0,2 mm 2 m/s 722 mmHg 84%
    23:00 +18°C° 0,2 mm 2 m/s 722 mmHg 85%

    30 Mai, Mercredi

    Heure Température Précipitation Vent Pression Humidité
    00:00 +18°C° 0,2 mm 2 m/s 721 mmHg 86%
    01:00 +17°C° 0,2 mm 2 m/s 721 mmHg 87%
    02:00 +17°C° 0 mm 2 m/s 721 mmHg 87%
    03:00 +16°C° 0 mm 2 m/s 721 mmHg 88%
    04:00 +16°C° 0 mm 2 m/s 721 mmHg 89%
    05:00 +17°C° 0 mm 2 m/s 721 mmHg 86%
    06:00 +18°C° 0 mm 2 m/s 721 mmHg 82%
    07:00 +19°C° 0 mm 3 m/s 722 mmHg 79%
    08:00 +20°C° 0 mm 3 m/s 722 mmHg 74%
    09:00 +21°C° 0 mm 3 m/s 722 mmHg 70%
    10:00 +22°C° 0 mm 3 m/s 722 mmHg 66%
    11:00 +24°C° 0 mm 3 m/s 722 mmHg 63%
    12:00 +25°C° 0 mm 3 m/s 722 mmHg 60%
    13:00 +26°C° 0 mm 4 m/s 721 mmHg 58%
    14:00 +26°C° 0,2 mm 4 m/s 721 mmHg 59%
    15:00 +26°C° 0,2 mm 4 m/s 721 mmHg 61%
    16:00 +26°C° 0,2 mm 4 m/s 721 mmHg 62%
    17:00 +25°C° 0,6 mm 3 m/s 721 mmHg 68%
    18:00 +22°C° 0,6 mm 3 m/s 721 mmHg 75%
    19:00 +21°C° 0,6 mm 3 m/s 721 mmHg 81%
    20:00 +20°C° 0,2 mm 3 m/s 721 mmHg 83%
    21:00 +19°C° 0,2 mm 2 m/s 721 mmHg 85%
    22:00 +18°C° 0,2 mm 2 m/s 721 mmHg 87%
    23:00 +18°C° 0,2 mm 2 m/s 721 mmHg 88%

    31 Mai, Jeudi

    Heure Température Précipitation Vent Pression Humidité
    00:00 +18°C° 0,2 mm 2 m/s 720 mmHg 90%
    01:00 +17°C° 0,2 mm 2 m/s 720 mmHg 91%
    02:00 +17°C° 0,1 mm 2 m/s 720 mmHg 92%
    03:00 +17°C° 0,1 mm 2 m/s 720 mmHg 93%
    04:00 +17°C° 0,1 mm 2 m/s 720 mmHg 94%
    05:00 +17°C° 0 mm 2 m/s 720 mmHg 91%
    06:00 +18°C° 0 mm 2 m/s 721 mmHg 88%
    07:00 +19°C° 0 mm 2 m/s 721 mmHg 85%
    08:00 +21°C° 0 mm 3 m/s 721 mmHg 79%
    09:00 +22°C° 0 mm 3 m/s 721 mmHg 73%
    10:00 +24°C° 0 mm 3 m/s 721 mmHg 67%
    11:00 +25°C° 0,3 mm 3 m/s 721 mmHg 65%
    12:00 +25°C° 0,3 mm 3 m/s 721 mmHg 62%
    13:00 +26°C° 0,3 mm 4 m/s 720 mmHg 60%
    14:00 +26°C° 1,1 mm 3 m/s 720 mmHg 65%
    15:00 +25°C° 1,1 mm 3 m/s 720 mmHg 71%
    16:00 +24°C° 1,1 mm 3 m/s 720 mmHg 76%
    17:00 +22°C° 0,7 mm 3 m/s 720 mmHg 80%
    18:00 +21°C° 0,7 mm 2 m/s 720 mmHg 84%
    19:00 +20°C° 0,7 mm 2 m/s 720 mmHg 88%
    20:00 +19°C° 0,7 mm 2 m/s 720 mmHg 89%
    21:00 +19°C° 0,7 mm 2 m/s 720 mmHg 90%
    22:00 +18°C° 0,7 mm 2 m/s 720 mmHg 91%
    23:00 +18°C° 0,9 mm 2 m/s 720 mmHg 92%
    Voir plus